729  
ASUS41 KALY 210210  
RWRALY  
 
NEW YORK STATE HOURLY WEATHER ROUNDUP  
NATIONAL WEATHER SERVICE ALBANY NY  
1000 PM EDT SAT APR 20 2019  
 
NOTE: "FAIR" INDICATES FEW OR NO CLOUDS BELOW 12,000 FEET WITH NO  
SIGNIFICANT WEATHER AND/OR NO S TO VISIBILITY
.  
 
NYZ032-033-038>043-046>054-057>066-NYZ062>081-082-084-210300-  
EAST  
 
 
CITY SKY/WX TMP DP RH WIND PRES REMARKS
 
ALBANY MOCLDY 64 50 60 S13G29 29.82R  
GLENS FALLS FAIR 47 45 93 NW5 29.82R  
POUGHKEEPSIE FAIR 60 46 59 VRB5 29.83R  
NEWBURGH PTCLDY 57 50 77 S15G21 29.83R  
MONTGOMERY FAIR 57 46 66 VRB5 29.82R  
WHITE PLAINS MOCLDY 55 49 80 SE6 29.88R  
ISLIP CLOUDY 56 54 93 S13 29.89R  
NEW YORK CITY MOCLDY 55 48 77 S13 29.86R  
CENTRAL PARK MOCLDY 55 49 80 CALM 29.88R  

 
 
NYZ005>009-017-018-044>046-055-056-210300-  
CENTRAL  
 
 
CITY SKY/WX TMP DP RH WIND PRES REMARKS
 
FULTON CLOUDY 44 41 89 W7 29.73R  
SYRACUSE MOCLDY 49 44 83 W13 29.72R  
ROME FAIR 64 52 64 SE12 29.72R  
ELMIRA MOCLDY 65 40 39 S16G28 29.69R  
BINGHAMTON FAIR 60 45 57 S12G20 29.73R  
MONTICELLO FAIR 54 49 83 E7 29.83R  

 
 
NYZ026>034-041>043-087-210300-  
NORTH  
 
 
CITY SKY/WX TMP DP RH WIND PRES REMARKS
 
WATERTOWN FAIR 47 46 97 SW8 29.68R  
FORT DRUM NOT AVBL  
OGDENSBURG CLOUDY 45 45 100 NE7 29.67S FOG  
MASSENA CLOUDY 45 42 89 NE13 29.72S  
SARANAC LAKE FAIR 59 48 67 S17G29 29.74R  
PLATTSBURGH CLOUDY 46 44 93 S5 29.78S  

 
 
NYZ001>004-010>016-019>021-085-210300-  
WEST  
 
 
CITY SKY/WX TMP DP RH WIND PRES REMARKS
 
NIAGARA FALLS CLOUDY 44 42 93 CALM 29.72R  
BUFFALO CLOUDY 45 44 97 SE8 29.74R  
DUNKIRK CLOUDY 45 43 93 CALM 29.74R FOG  
JAMESTOWN LGT RAIN 46 46 100 S9 29.75R VSB 1  
WELLSVILLE CLOUDY 50 47 89 NW8 29.74R  
ROCHESTER DRIZZLE 44 42 93 N3 29.74F FOG  
PENN YAN MOCLDY 48 46 93 CALM 29.73R  

 
 
KEY  
WCI = WIND CHILL INDEX  
VSB = VISIBILITY  
HX = HEAT INDEX  

 
 
 
CLICK HERE TO GO TO PREVIOUS BULLETINS.

The Nexlab NY Page
The Nexlab VT Page
The Nexlab MA Page
The Nexlab CT Page Main Text Page